This demonstration page uses our WeatherBlox Daily Observations layout. Learn more.

Left ArrowRight Arrow

36.19886, -115.1175

Hourly Observations for January 13, 2022

Temp ( °F °C ) Dew Point ( °F °C ) Humidity (%) Winds ( mph kmh ) Pressure ( in mb ) Visibility ( mi km ) Precip ( " mm )
12:53 am 00:53 Clear 47 8.3 23 -5 39 39 NW 3 6 30.35 1028 10 16 0.00 0.00
1:53 am 01:53 Clear 46 7.8 22 -5.6 38 38 WNW 6 9 30.35 1028 10 16 0.00 0.00
2:53 am 02:53 Clear 45 7.2 22 -5.6 40 40 WNW 5 7 30.34 1027 10 16 0.00 0.00
3:53 am 03:53 Clear 44 6.7 22 -5.6 41 41 Calm 30.33 1027 10 16 0.00 0.00
4:53 am 04:53 Clear 45 7.2 24 -4.4 44 44 W 5 7 30.32 1027 10 16 0.00 0.00
5:53 am 05:53 Clear 44 6.7 23 -5 43 43 NW 6 9 30.33 1027 10 16 0.00 0.00
6:53 am 06:53 Sunny 44 6.7 23 -5 43 43 WNW 3 6 30.33 1027 10 16 0.00 0.00
7:53 am 07:53 Sunny 47 8.3 24 -4.4 41 41 NNW 7 11 30.34 1027 10 16 0.00 0.00
8:53 am 08:53 Sunny 52 11.1 25 -3.9 35 35 Calm 30.34 1028 10 16 0.00 0.00
9:53 am 09:53 Sunny 54 12.2 26 -3.3 34 34 Calm 30.35 1028 10 16 0.00 0.00
10:53 am 10:53 Sunny 58 14.4 25 -3.9 28 28 Calm 30.31 1027 10 16 0.00 0.00
11:53 am 11:53 Sunny 59 15 25 -3.9 27 27 SE 3 6 30.28 1026 10 16 0.00 0.00
12:53 pm 12:53 Sunny 63 17.2 25 -3.9 24 24 Calm 30.24 1024 10 16 0.00 0.00
1:53 pm 13:53 Sunny 64 17.8 24 -4.4 22 22 ESE 7 11 30.21 1023 10 16 0.00 0.00
2:53 pm 14:53 Sunny 64 17.8 24 -4.4 22 22 E 7 11 30.21 1023 10 16 0.00 0.00
3:53 pm 15:53 Mostly Sunny 62 16.7 24 -4.4 23 23 N 3 6 30.21 1023 10 16 0.00 0.00
4:53 pm 16:53 Clear 60 15.6 24 -4.4 25 25 Calm 30.21 1023 10 16 0.00 0.00
5:53 pm 17:53 Partly Cloudy 59 15 25 -3.9 27 27 Calm 30.20 1023 10 16 0.00 0.00
6:53 pm 18:53 Clear 58 14.4 25 -3.9 28 28 N 7 11 30.19 1023 10 16 0.00 0.00
7:53 pm 19:53 Clear 57 13.9 25 -3.9 29 29 Calm 30.18 1022 10 16 0.00 0.00
8:53 pm 20:53 Clear 56 13.3 26 -3.3 32 32 S 6 9 30.18 1022 10 16 0.00 0.00
9:53 pm 21:53 Clear 55 12.8 26 -3.3 33 33 Calm 30.17 1022 10 16 0.00 0.00
10:53 pm 22:53 Clear 52 11.1 25 -3.9 35 35 NW 5 7 30.16 1022 10 16 0.00 0.00
11:53 pm 23:53 Clear 51 10.6 24 -4.4 35 35 NNW 8 13 30.15 1021 10 16 0.00 0.00

Powered by AerisWeather